KAZSAT 2

导读

KAZSAT 2(KazSat-2)是哈萨克斯坦(KZ)发射的第二颗国产通信卫星,总造价达1.15亿美元,于2011年7月15日发射升空。作为哈萨克斯坦核心通信卫星系统的组成部分,它承担着全国电视广播传输、偏远地区互联网接入服务,保障了该国通信网络覆盖与信息独立,为哈萨克斯坦航天事业和数字基础设施建设奠定了重要基础。

基本信息
目录编号:
37749
目录名称:
KAZSAT 2
国际标识:
2011-035B
轨道中心:
EARTH
卫星名称:
KAZSAT 2
卫星全名:
--
卫星状态:
在轨 (已飞行5455 天)
发射日期:
2011-07-15 UTC
国别 :
(KZ)
星等 :
--
轨道信息
数据来源 国际轨道数据 AOE轨道数据
星历时间 2026-06-20T17:49:14+0800
1天前
查看轨道信息
2026-06-20T05:00:00+0800
1天前
查看轨道信息
半长轴 42164.924km 42164.84km
偏心率 0.0001352 0.0001366
轨道倾角 0.037° 0.030°
近地点辐角 309.131° 304.259°
升交点赤经 204.596° 221.928°
平近点角 348.719° 143.427°
近地点 35781.086km 35780.943km
远地点 35792.488km 35792.463km
周期 1436.107分钟 1436.102分钟
每日圈数 1.002711 1.002714
详细信息
使用方式:
暂无
2D轨道图
3D轨道图
轨道高度分析图
轨道倾角分析图
轨道综合分析图
查看轨道综合分析图